Location: Brede
(50.9167°N, 0.6000°E)
Time: 02:30:23
(UTC+00:00)

Cosmos 2026 Rocket - Pass Details

Date: 08 August 2020
Orbit: 940 x 1001 km, 82.9° (Epoch: 19 September)

Event Time Altitude Azimuth Distance (km) Brightness Sun altitude
Rises 02:03:17 0° 346° (NNW) 3,617 7.7 -18.1°
Reaches altitude 10° 02:05:52 10° 340° (NNW) 2,670 6.8 -17.9°
Maximum altitude 02:11:34 44° 270° (W) 1,289 4.4 -17.4°
Enters shadow 02:14:24 27° 217° (SW) 1,737 4.7 -17.2°
